Regional Weather Roundup
Issued by NWS

Home | Current Version | Previous Version | Graphics & Text | Print | Product List | Glossary On
Versions: 1 2 3 4 5 6 7 8 9 10 11 12 13 14 15 16 17 18 19 20 21 22 23 24 25 26 27 28 29 30 31 32 33 34 35 36 37 38 39 40 41 42 43 44 45 46 47 48 49 50
094
ASUS44 KJAN 200003
RWRMS

MISSISSIPPI HOURLY WEATHER ROUNDUP
NATIONAL WEATHER SERVICE JACKSON MS
700 PM CDT SAT APR 19 2014

NOTE: "FAIR: INDICATES FEW OR NO CLOUDS BELOW 12,000 FEET WITH NO
SIGNIFICANT WEATHER AND/OR OBSTRUCTIONS TO VISIBILITY.

MSZ001>002-007>008-010>013-018>021-025>028-034>036-200100-
NORTHWEST MISSISSIPPI

CITY           SKY/WX    TMP DP  RH WIND       PRES   REMARKS
CLARKSDALE       N/A     75  46  35 N9        30.13S
CLEVELAND      FAIR      74  52  47 N7        30.11S
GREENWOOD      CLEAR     75  48  38 NW5       30.10S
6HR MIN TEMP:  74; 6HR MAX TEMP:  79;

GREENVILLE     CLEAR     74  51  44 N7        30.11S
6HR MIN TEMP:  74; 6HR MAX TEMP:  80;

GRENADA        FAIR      73  45  35 N3        30.11R
OLIVE BRANCH   MOCLDY    72  43  35 N6        30.13
OXFORD         FAIR      75  39  27 NE6       30.13S
TUNICA         CLEAR     70  48  46 N7        30.13S
$$

MSZ003>006-009-014>017-022>024-029>033-037>039-200100-
NORTHEAST MISSISSIPPI

CITY           SKY/WX    TMP DP  RH WIND       PRES   REMARKS
BELMONT        FAIR      72  44  36 NE3       30.11S
COLUMBUS AFB   NOT AVBL
CORINTH        FAIR      73  36  25 N5        30.11S
GOLDN TRIANGLE CLEAR     73  48  40 N7        30.12R
STARKVILLE     FAIR      73  43  33 CALM      30.10R
TUPELO         CLEAR     71  48  43 N5        30.10S
6HR MIN TEMP:  71; 6HR MAX TEMP:  79;

$$

MSZ040-058-200100-
CENTRAL MISSISSIPPI

CITY           SKY/WX    TMP DP  RH WIND       PRES   REMARKS
JACKSON INTL   PTCLDY    75  51  43 NW3       30.11R
6HR MIN TEMP:  74; 6HR MAX TEMP:  79;

JACKSON HAWKNS CLEAR     75  50  41 N7G25     30.11S
6HR MIN TEMP:  74; 6HR MAX TEMP:  79;

MERIDIAN KEY   CLEAR     72  47  40 N7        30.09R
6HR MIN TEMP:  72; 6HR MAX TEMP:  79;

MERIDIAN NAS   CLEAR     74  46  36 NW7       30.09R
6HR MIN TEMP:  74; 6HR MAX TEMP:  79;

RAYMOND        FAIR      73  68  83 N5        30.11S
VICKSBURG      CLEAR     74  53  48 N7        30.11F
6HR MIN TEMP:  73; 6HR MAX TEMP:  78;

$$

MSZ059>079-200100-
SOUTH MISSISSIPPI

CITY           SKY/WX    TMP DP  RH WIND       PRES   REMARKS
BROOKHAVEN     FAIR      73  52  46 N5        30.12S
COLUMBIA       FAIR      73  52  46 MISG      30.08R
HATTIESBURG    CLEAR     76  51  41 N5        30.09R
6HR MIN TEMP:  75; 6HR MAX TEMP:  79;

MCCOMB         CLEAR     75  49  39 N6        30.10R
6HR MIN TEMP:  75; 6HR MAX TEMP:  79;

NATCHEZ        CLEAR     73  52  46 NE6       30.11S
6HR MIN TEMP:  73; 6HR MAX TEMP:  75;

PINE BELT      CLEAR     73  50  43 N3        30.10S
6HR MIN TEMP:  73; 6HR MAX TEMP:  79;

$$

MSZ080>082-200100-
COASTAL MISSISSIPPI

CITY           SKY/WX    TMP DP  RH WIND       PRES   REMARKS
BAY ST LOUIS   CLEAR     75  50  41 NW8       30.07R
BILOXI         NOT AVBL
PASCAGOULA     CLEAR     74  52  46 N3        30.05R
6HR MIN TEMP:  74; 6HR MAX TEMP:  80;

GULFPORT       CLEAR     78  50  37 N10       30.06R
6HR MIN TEMP:  78; 6HR MAX TEMP:  82;

$$



USA.gov is the U.S. government's official web portal to all federal, state and local government web resources and services.